User: anonymous   Login
Location: Kelshall
(52.0000°N, 0.0500°W)
Time: 13:21:40
(UTC+00:00)
Language:

MetOp-A - Orbit

View from above orbital plane
View from above orbital plane
View from above satellite
View from above satellite

Ground track
Ground track

The orbit data is extracted from the following two-line orbital elements,

1 29499U 06044A   20331.11148775  .00000023  00000-0  29614-4 0  9991
2 29499  98.5022  12.1918 0001456 116.6465 269.1195 14.21496335731853
Epoch (UTC): 26 November 2020 02:40:32
Eccentricity: 0.0001456
inclination: 98.5022°
perigee height: 819 km
apogee height: 821 km
right ascension of ascending node: 12.1918°
argument of perigee: 116.6465°
revolutions per day: 14.21496335
mean anomaly at epoch: 269.1195°
orbit number at epoch: 73185

The dashed part of the orbit path shows where the satellite is in the earth's shadow,  

DLR